Location: Sungai Bunut
(2.6333°N, 113.7333°E)
Time: 18:28:27
(UTC+00:00)

ARIANE 5 DEB (SYLDA) - Pass Details

Date: 16 October 2021
Orbit: 329 x 22664 km, 6.2° (Epoch: 07 December)

Event Time Altitude Azimuth Distance (km) Brightness Sun altitude
Exits shadow 21:36:41 - 261° (W) 4,667 6.9 -8.8°
Maximum altitude 21:45:01 30° 198° (SSW) 1,170 4.4 -6.7°
Drops below altitude 10° 21:47:40 10° 132° (SE) 1,507 6.1 -6.1°
Sets 21:49:12 0° 118° (ESE) 2,154 7.5 -5.7°
